Simultaneous Nadir Overpasses (SNOs) Predictions

Prediction of SNOs between AURA and NPP Satellite Orbit:

Table of predicted SNOs for the next 14.0 days since TLE Epoch: 3/29/2019
Index Date (AURA) Time (AURA) Lat,Lon (AURA) SZA (AURA ) Date (NPP) Time (NPP) Lat,Lon (NPP) SZA (NPP ) Distance(km) Time Diff (sec)
1 03/30/2019 11:25:34 -79.43, 85.05 91.02 03/30/2019 11:24:20 -79.43, 85.07 90.96 0.49 74
2 03/30/2019 12:14:53 79.70,-105.43 88.59 03/30/2019 12:14:56 79.71,-105.29 88.56 2.96 3
3 04/02/2019 03:42:03 -79.50,-158.60 92.17 04/02/2019 03:41:11 -79.51,-158.52 92.15 1.76 52
4 04/02/2019 04:31:24 79.69, 10.38 87.54 04/02/2019 04:31:50 79.68, 10.27 87.54 2.32 26
5 04/04/2019 19:58:34 -79.49, -42.79 93.20 04/04/2019 19:58:05 -79.48, -42.94 93.15 3.00 29
6 04/04/2019 20:47:53 79.75, 126.72 86.41 04/04/2019 20:48:41 79.75, 126.67 86.38 0.86 48
7 04/07/2019 12:15:01 -79.63, 74.04 94.43 04/07/2019 12:14:54 -79.62, 74.00 94.42 1.01 7
8 04/07/2019 13:04:21 79.84,-116.69 85.23 04/07/2019 13:05:31 79.85,-116.64 85.17 1.09 70
9 04/10/2019 03:42:09 79.41, 20.77 84.89 04/10/2019 03:41:07 79.41, 20.68 84.95 1.87 62




NCC Satellite Simultaneous Nadir Overpasses (SNOs) Prediction Service
